DateTimeUTC,F1_A11,F1_S11,BsB_S11,BsG_S11,BsR_S11,BbsB_S11,BbsG_S11,BbsR_S11,BaB_A11,BaG_A11,BaR_A11,Tu_S11,T_S11,Uu_S11,U_S11,P_S11,T1_A11
2021-06-15T21:00:00Z,00000200,20000000,,,,,,,-000.09,-000.28,0000.03,18.6,25.4,02.9,01.9,0670.1,31.1
2021-06-15T21:01:00Z,00000200,20000000,,,,,,,-000.21,-000.16,-000.38,18.6,25.3,02.9,01.9,0670.1,31.1
2021-06-15T21:02:00Z,00000200,20000000,,,,,,,0000.30,0000.11,0000.33,18.6,25.3,02.9,01.9,0670.1,31.1
2021-06-15T21:03:00Z,00000200,60000000,,,,,,,0000.03,0000.23,0000.01,18.6,25.3,02.9,01.9,0670.1,31.1
2021-06-15T21:04:00Z,00000200,40000000,0001.24,0000.57,0000.09,0000.46,-000.03,-000.29,0000.24,-000.25,0000.06,18.6,25.2,03.0,02.0,0671.0,31.1
2021-06-15T21:05:00Z,00000200,00000000,0001.33,0000.41,0000.34,0000.47,-000.01,0000.21,0000.39,0000.51,0000.15,18.7,25.1,02.9,01.9,0671.1,31.1
2021-06-15T21:06:00Z,00000200,00000000,0000.50,0000.69,0000.17,-000.38,0000.25,0000.28,-000.04,0000.20,0000.15,18.7,25.2,02.8,01.9,0671.1,31.1
2021-06-15T21:07:00Z,00000200,00000000,0000.61,0000.57,-000.07,-000.02,0000.24,-000.13,0000.16,0000.11,0000.15,18.7,25.2,02.9,02.0,0671.1,31.1
2021-06-15T21:08:00Z,00000200,00000000,0000.85,0000.53,0000.28,-000.03,0000.22,0000.20,0000.30,0000.00,-000.01,18.8,25.2,02.8,01.9,0671.1,31.1
2021-06-15T21:09:00Z,00000200,00000000,0001.07,0000.82,0000.50,0000.07,0000.11,0000.16,-000.05,0000.02,0000.37,18.8,25.2,02.8,01.9,0671.1,31.1
2021-06-15T21:10:00Z,00000200,00000000,0001.88,0000.72,0000.28,-000.10,0000.43,0000.32,0000.47,0000.71,0000.20,18.8,25.2,02.8,01.9,0671.1,31.1
2021-06-15T21:11:00Z,00000200,00000000,0001.20,0000.75,0000.07,0000.24,0000.45,-000.04,0000.92,0000.29,0000.49,18.7,25.2,02.9,02.0,0671.1,31.1
2021-06-15T21:12:00Z,00000200,00000000,0001.02,0000.76,0000.47,-000.21,0000.53,0000.06,0001.21,0001.51,0000.94,18.7,25.2,02.9,01.9,0671.1,31.0
2021-06-15T21:13:00Z,00000200,00000000,0001.15,0000.70,0000.17,0000.54,0000.26,0000.05,0002.62,0002.26,0001.46,18.7,25.1,03.0,02.0,0671.1,31.0
2021-06-15T21:14:00Z,00000200,00000000,0001.96,0000.95,0000.40,-000.15,0000.23,0000.22,0009.76,0008.44,0006.23,18.7,25.1,02.9,01.9,0671.1,31.1
2021-06-15T21:15:00Z,00000200,00000000,0002.14,0001.59,0000.88,0000.33,0000.11,0000.18,0031.97,0028.62,0021.65,18.7,25.1,02.9,02.0,0671.1,31.0
2021-06-15T21:16:00Z,00000200,00000000,0001.60,0001.03,0000.90,0000.86,0000.29,0000.22,0030.97,0027.51,0020.82,18.7,25.1,02.8,01.9,0671.1,31.1
2021-06-15T21:17:00Z,00000200,00000000,0001.97,0001.25,0000.90,0000.86,0000.42,0000.19,0028.63,0025.87,0019.53,18.6,25.1,02.8,01.9,0671.1,31.0
2021-06-15T21:18:00Z,00000200,00000000,0002.20,0001.70,0000.99,-000.01,0000.37,0000.05,0031.72,0028.46,0021.14,18.6,25.1,02.9,01.9,0671.1,31.0
2021-06-15T21:19:00Z,00000200,00000000,0001.93,0001.38,0000.62,0000.27,0000.20,0000.46,0021.91,0019.90,0015.04,18.6,25.1,02.8,01.9,0671.1,31.0
2021-06-15T21:20:00Z,00000200,00000000,0000.54,0000.67,0000.40,0000.20,-000.03,0000.28,0002.95,0002.45,0002.22,18.6,25.1,02.7,01.8,0671.2,31.1
2021-06-15T21:21:00Z,00000200,00000000,0000.92,0000.46,0000.15,0000.32,0000.07,-000.06,0000.45,0000.33,0000.54,18.7,25.1,02.8,01.9,0671.2,31.1
2021-06-15T21:22:00Z,00000200,00000000,0000.33,0000.72,0000.24,-000.35,-000.08,0000.10,0000.80,0001.39,0000.41,18.7,25.1,02.7,01.8,0671.2,31.1
2021-06-15T21:23:00Z,00000200,00000000,0001.03,0000.54,0000.12,0000.09,-000.09,-000.11,0000.52,-000.08,0000.25,18.8,25.1,02.6,01.8,0671.2,31.1
2021-06-15T21:24:00Z,00000200,00000000,0001.05,0000.49,0000.39,-000.13,0000.14,0000.16,0000.42,0000.75,-000.02,18.8,25.1,02.6,01.8,0671.2,31.1
2021-06-15T21:25:00Z,00000200,00000000,0000.48,0000.82,0000.19,-000.17,-000.00,-000.07,0000.59,0000.43,0000.25,18.7,25.1,02.6,01.8,0671.2,31.1
2021-06-15T21:26:00Z,00000200,00000000,0000.83,0000.60,0000.66,0000.10,0000.25,0000.20,0000.76,0000.21,0000.55,18.7,25.1,02.6,01.8,0671.2,31.1
2021-06-15T21:27:00Z,00000200,00000000,0000.71,0000.92,0000.02,-000.20,0000.08,-000.02,0000.25,0000.60,0000.65,18.7,25.1,02.7,01.8,0671.2,31.0
2021-06-15T21:28:00Z,00000200,00000000,0001.76,0000.89,0000.06,-000.27,0000.20,-000.00,0000.32,-000.05,-000.05,18.7,25.1,02.6,01.8,0671.2,31.0
2021-06-15T21:29:00Z,00000200,00000000,0000.80,0000.84,0000.28,0000.30,0000.26,0000.11,0000.49,0000.31,0000.26,18.7,25.1,02.7,01.8,0671.2,31.1
2021-06-15T21:30:00Z,00000200,00000000,0000.88,0000.70,0000.16,0000.58,-000.27,0000.07,0000.66,0000.65,0000.45,18.6,25.1,02.6,01.8,0671.2,31.1
2021-06-15T21:31:00Z,00000200,00000000,0000.80,0000.61,0000.32,-000.43,-000.06,-000.21,0000.10,0000.26,-000.30,18.6,25.1,02.7,01.8,0671.2,31.1
2021-06-15T21:32:00Z,00000200,00000000,0001.43,0000.73,0000.30,0000.07,-000.09,0000.05,0000.36,0000.29,0000.59,18.6,25.0,02.6,01.8,0671.2,31.0
2021-06-15T21:33:00Z,00000200,00000000,0000.89,0000.53,0000.35,-000.53,0000.12,-000.24,0000.10,0000.11,0000.01,18.6,25.0,02.6,01.8,0671.2,31.0
2021-06-15T21:34:00Z,00000200,00000000,0001.26,0000.60,0000.02,0000.49,0000.27,-000.20,0000.33,0000.72,0000.22,18.6,25.0,02.7,01.8,0671.2,31.0
2021-06-15T21:35:00Z,00000200,00000000,0000.56,0000.68,0000.31,0000.62,0000.02,-000.30,0000.55,0000.28,0000.63,18.6,25.0,02.6,01.8,0671.2,31.1
2021-06-15T21:36:00Z,00000200,00000000,0000.89,0000.69,0000.32,-000.29,0000.03,0000.23,0000.12,0000.21,0000.06,18.7,25.1,02.6,01.7,0671.2,31.1
2021-06-15T21:37:00Z,00000200,00000000,0000.73,0000.45,0000.18,-000.18,0000.18,0000.26,0000.30,-000.09,0000.37,18.7,25.1,02.6,01.7,0671.2,31.1
2021-06-15T21:38:00Z,00000200,00000000,0001.09,0000.54,-000.27,-000.02,0000.18,0000.00,0000.02,-000.01,-000.14,18.7,25.1,02.6,01.7,0671.2,31.1
2021-06-15T21:39:00Z,00000200,00000000,0000.45,0000.75,0000.29,0000.08,0000.05,0000.26,0000.17,0000.46,0000.23,18.7,25.1,02.6,01.8,0671.2,31.1
2021-06-15T21:40:00Z,00000200,00000000,0000.47,0000.73,0000.07,0000.11,0000.24,-000.18,0000.30,-000.07,0000.40,18.7,25.1,02.5,01.7,0671.2,31.1
2021-06-15T21:41:00Z,00000200,00000000,0001.22,0000.40,0000.12,0000.58,-000.09,-000.14,0000.50,0000.45,-000.03,18.7,25.1,02.5,01.7,0671.2,31.1
2021-06-15T21:42:00Z,00000200,00000000,0000.84,0000.83,0000.06,-000.13,0000.24,0000.08,0000.04,0000.13,0000.14,18.7,25.1,02.6,01.8,0671.2,31.0
2021-06-15T21:43:00Z,00000200,00000000,0001.09,0000.90,0000.39,0000.23,0000.14,0000.08,0000.54,0000.53,0000.48,18.7,25.1,02.6,01.8,0671.2,31.0
2021-06-15T21:44:00Z,00000200,00000000,0000.53,0000.79,0000.02,0000.18,0000.28,0000.02,-000.20,-000.02,0000.04,18.6,25.1,02.6,01.8,0671.2,31.1
2021-06-15T21:45:00Z,00000200,00000000,0001.05,0000.46,0000.44,0000.32,0000.11,-000.23,0000.49,0000.06,0000.03,18.6,25.0,02.6,01.8,0671.2,31.0
2021-06-15T21:46:00Z,00000200,00000000,0001.87,0000.71,0000.27,-000.24,-000.19,-000.29,0000.17,0000.40,0000.16,18.6,25.0,02.6,01.8,0671.2,31.0
2021-06-15T21:47:00Z,00000200,00000000,0001.14,0000.94,0000.11,-000.07,-000.02,0000.05,0000.29,0000.28,0000.06,18.6,25.0,02.6,01.7,0671.2,31.1
2021-06-15T21:48:00Z,00000200,00000000,0000.49,0000.58,0000.16,-000.07,0000.06,-000.08,0000.36,-000.05,0000.06,18.6,25.0,02.5,01.7,0671.2,31.1
2021-06-15T21:49:00Z,00000200,00000000,0000.82,0000.73,0000.01,0000.27,0000.16,-000.31,0000.02,0000.73,0000.63,18.6,25.0,02.5,01.7,0671.2,31.0
2021-06-15T21:50:00Z,00000200,00000000,0000.88,0000.38,0000.36,-000.06,0000.06,-000.20,0000.56,0000.16,0000.24,18.6,25.0,02.5,01.7,0671.2,31.0
2021-06-15T21:51:00Z,00000200,00000000,0000.96,0000.46,0000.14,0000.28,0000.12,0000.17,0000.14,-000.00,0000.01,18.6,25.0,02.6,01.8,0671.2,31.1
2021-06-15T21:52:00Z,00000200,00000000,0001.16,0000.69,-000.04,0000.02,0000.17,-000.05,0000.18,0000.27,0000.19,18.7,25.1,02.7,01.8,0671.2,31.1
2021-06-15T21:53:00Z,00000200,00000000,0000.00,0000.61,0000.49,0000.41,0000.19,0000.15,0000.05,0000.13,-000.05,18.7,25.1,02.5,01.7,0671.2,31.1
2021-06-15T21:54:00Z,00000200,00000000,0001.26,0000.65,0000.44,0000.31,0000.07,0000.12,0000.21,0000.18,0000.04,18.7,25.1,02.5,01.7,0671.2,31.1
2021-06-15T21:55:00Z,00000200,00000000,0000.79,0000.66,0000.15,-000.10,0000.24,-000.11,0000.27,0000.27,0000.78,18.7,25.1,02.5,01.7,0671.2,31.1
2021-06-15T21:56:00Z,00000200,00000000,0000.76,0000.83,0000.27,-000.64,-000.01,0000.06,0000.08,0000.09,-000.31,18.7,25.1,02.5,01.7,0671.2,31.0
2021-06-15T21:57:00Z,00000200,40000000,,,,,,,0000.50,0000.46,0000.50,18.7,25.1,01.9,01.3,0671.2,31.1
2021-06-15T21:58:00Z,00000200,60000000,,,,,,,-000.17,-000.13,-000.66,18.5,25.1,02.6,01.7,0670.2,31.1
2021-06-15T21:59:00Z,00000200,20000000,,,,,,,-000.16,-000.32,0000.21,18.5,25.2,02.6,01.7,0670.2,31.0
